Blue Canyon, CA

7:53 AM PST on December 08, 2019 (GMT -0800)
Blue Canyon-Nyack

Weather History for KBLU - October, 2019

Change the Weather History Date:

Saturday, October 12, 2019

  Actual Average Record
Temperature  
Mean Temperature 56 °F -  
Max Temperature 62 °F 62 °F 82 °F (1978)
Min Temperature 50 °F 45 °F 27 °F (1981)
Degree Days  
Heating Degree Days 10    
Growing Degree Days 6 (Base 50)    
Moisture  
Dew Point 26 °F    
Average Humidity 35    
Maximum Humidity 50    
Minimum Humidity 29    
Precipitation  
Precipitation 0.00 in - - ()
Sea Level Pressure  
Sea Level Pressure 29.90 in    
Wind  
Wind Speed 1 mph ()    
Max Wind Speed 7 mph    
Max Gust Speed -    
Visibility 9.9 miles    
Events      
Averages and records for this station are not official NWS values.
T = Trace of Precipitation, MM = Missing Value Source: Averaged Metar Reports

Daily Weather History Graph

Daily Weather History Graph

Search for Another Location

Airport or City:

Astronomy

Oct. 12, 2019 Rise Set
Actual Time 7:09 AM PDT 6:28 PM PDT
Civil Twilight 6:42 AM PDT 6:55 PM PDT
Nautical Twilight 6:11 AM PDT 7:26 PM PDT
Astronomical Twilight 5:40 AM PDT 7:57 PM PDT
Moon 6:26 PM PDT (10/12) 5:52 AM PDT (10/12)
Length of Visible Light 12h 12m
Length of Day
11h 19m
Waxing Gibbous, 99% of the Moon is Illuminated
Oct 12
Waxing Gibbous
Oct 13
Full
Oct 21
Last Quarter
Oct 27
New
Nov 4
First Quarter

Hourly Weather History & Observations

Time (PDT) Temp. Dew Point Humidity Pressure Visibility Wind Dir Wind Speed Gust Speed Precip Events Conditions
12:52 AM 53.1 °F 21.9 °F 30% 29.94 in 10.0 mi Calm Calm - N/A   Clear
1:52 AM 51.1 °F 21.9 °F 32% 29.94 in 10.0 mi Calm Calm - N/A   Clear
2:52 AM 50.0 °F 23.0 °F 35% 29.92 in 10.0 mi Calm Calm - N/A   Clear
3:52 AM 52.0 °F 21.0 °F 30% 29.90 in 10.0 mi Calm Calm - N/A   Clear
4:52 AM 52.0 °F 21.9 °F 31% 29.89 in 10.0 mi Calm Calm - N/A   Clear
5:52 AM 50.0 °F 23.0 °F 35% 29.91 in 10.0 mi Calm Calm - N/A   Clear
6:52 AM 50.0 °F 21.9 °F 33% 29.93 in 10.0 mi Calm Calm - N/A   Clear
7:52 AM 51.1 °F 23.0 °F 33% 29.94 in 10.0 mi Calm Calm - N/A   Clear
8:52 AM 53.1 °F 24.1 °F 32% 29.93 in 10.0 mi Calm Calm - N/A   Clear
9:52 AM 55.9 °F 25.0 °F 30% 29.92 in 10.0 mi SSE 3.5 mph - N/A   Clear
10:52 AM 57.0 °F 25.0 °F 29% 29.92 in 10.0 mi South 4.6 mph - N/A   Clear
11:52 AM 59.0 °F 28.0 °F 31% 29.91 in 10.0 mi WNW 6.9 mph - N/A   Clear
1:52 PM 61.0 °F 32.0 °F 34% 29.89 in 10.0 mi Variable 4.6 mph - N/A   Clear
2:52 PM 61.0 °F 28.9 °F 30% 29.88 in 8.0 mi Variable 3.5 mph - N/A   Clear
3:52 PM 61.0 °F 28.9 °F 30% 29.87 in 10.0 mi Variable 5.8 mph - N/A   Clear
4:52 PM 60.1 °F 30.0 °F 32% 29.86 in 10.0 mi SW 3.5 mph - N/A   Clear
5:52 PM 55.9 °F 32.0 °F 40% 29.88 in 10.0 mi SSW 3.5 mph - N/A   Clear
6:52 PM 52.0 °F 33.1 °F 49% 29.90 in 10.0 mi Calm Calm - N/A   Clear
7:52 PM 50.0 °F 32.0 °F 50% 29.90 in 10.0 mi Calm Calm - N/A   Clear
8:52 PM 50.0 °F 30.0 °F 46% 29.89 in 10.0 mi Calm Calm - N/A   Clear
9:52 PM 52.0 °F 28.0 °F 40% 29.87 in 10.0 mi ESE 3.5 mph - N/A   Clear
10:52 PM 51.1 °F 26.1 °F 38% 29.87 in 10.0 mi SE 4.6 mph - N/A   Clear
11:52 PM 50.0 °F 24.1 °F 36% 29.87 in 10.0 mi SE 4.6 mph - N/A   Clear